Brookhaven, MS

9:07 AM CDT on September 26, 2017 (GMT -0500)
Brookhaven

Weather History for K1R7 - January, 2014

Change the Weather History Date:

Wednesday, January 15, 2014

  Actual Average (KMCB) Record (KMCB)
Temperature  
Mean Temperature 40 °F -  
Max Temperature 50 °F 58 °F 76 °F (1950)
Min Temperature 28 °F 34 °F 15 °F (1979)
Degree Days  
Heating Degree Days 25    
Moisture  
Dew Point 27 °F    
Average Humidity 58    
Maximum Humidity 93    
Minimum Humidity 30    
Precipitation  
Precipitation 0.00 in - - ()
Sea Level Pressure  
Sea Level Pressure 30.19 in    
Wind  
Wind Speed 7 mph (NW)    
Max Wind Speed 17 mph    
Max Gust Speed 25 mph    
Visibility 10 miles    
Events Rain    
Averages and records for this station are not official NWS values.
T = Trace of Precipitation, MM = Missing Value Source: NWS Daily Summary

Daily Weather History Graph

Daily Weather History Graph

Search for Another Location

Airport or City:

Trip Planner

Search our weather history database for the weather conditions in past years. The results will help you decide how hot, cold, wet, or windy it might be!

Date:

Astronomy

Jan. 15, 2014 Rise Set
Actual Time 7:01 AM CST 5:20 PM CST
Civil Twilight 6:35 AM CST 5:47 PM CST
Nautical Twilight 6:05 AM CST 6:17 PM CST
Astronomical Twilight 5:36 AM CST 6:46 PM CST
Moon 5:14 PM CST (1/15) 6:20 AM CST (1/15)
Length of Visible Light 11h 11m
Length of Day
10h 19m
Full, 100% of the Moon is Illuminated
Jan 15
Full
Jan 15
Full
Jan 23
Last Quarter
Jan 30
New
Feb 6
First Quarter

Hourly Weather History & Observations

Time (CST) Temp. Windchill Dew Point Humidity Pressure Visibility Wind Dir Wind Speed Gust Speed Precip Events Conditions
12:15 AM 46.4 °F 41.9 °F 33.8 °F 62% 30.10 in 10.0 mi NW 9.2 mph - N/A   Clear
12:35 AM 46.4 °F 42.9 °F 33.8 °F 62% 30.10 in 10.0 mi NNW 6.9 mph - N/A   Clear
12:55 AM 46.4 °F 41.9 °F 35.6 °F 66% 30.10 in 10.0 mi NNW 9.2 mph - N/A   Clear
1:15 AM 46.4 °F 43.5 °F 35.6 °F 66% 30.11 in 10.0 mi NNW 5.8 mph - N/A   Clear
1:35 AM 46.4 °F 43.5 °F 35.6 °F 66% 30.11 in 10.0 mi NNW 5.8 mph - N/A   Clear
1:55 AM 46.4 °F 43.5 °F 37.4 °F 71% 30.12 in 10.0 mi NNW 5.8 mph - N/A   Clear
2:15 AM 44.6 °F 41.4 °F 37.4 °F 76% 30.12 in 10.0 mi NNW 5.8 mph - N/A   Clear
2:35 AM 46.4 °F 41.5 °F 37.4 °F 71% 30.13 in 10.0 mi NNW 10.4 mph - N/A   Clear
2:55 AM 46.4 °F 42.4 °F 37.4 °F 71% 30.13 in 10.0 mi NNW 8.1 mph - N/A   Clear
3:15 AM 46.4 °F 42.4 °F 37.4 °F 71% 30.13 in 10.0 mi NNW 8.1 mph - N/A   Clear
3:35 AM 44.6 °F 41.4 °F 37.4 °F 76% 30.15 in 10.0 mi NW 5.8 mph - N/A   Clear
3:55 AM 44.6 °F 40.7 °F 37.4 °F 76% 30.16 in 10.0 mi NW 6.9 mph - N/A   Partly Cloudy
4:15 AM 44.6 °F 41.4 °F 37.4 °F 76% 30.16 in 10.0 mi NW 5.8 mph - N/A   Scattered Clouds
4:35 AM 44.6 °F 39.2 °F 35.6 °F 71% 30.16 in 10.0 mi NNW 10.4 mph - N/A   Scattered Clouds
4:55 AM 44.6 °F 37.4 °F 33.8 °F 66% 30.17 in 10.0 mi NW 16.1 mph 21.9 mph N/A Rain Light Rain
5:15 AM 42.8 °F 36.6 °F 35.6 °F 76% 30.18 in 10.0 mi NNW 11.5 mph 17.3 mph N/A   Mostly Cloudy
5:35 AM 41.0 °F 38.0 °F 35.6 °F 81% 30.19 in 10.0 mi NNW 4.6 mph - N/A   Mostly Cloudy
5:55 AM 39.2 °F - 35.6 °F 87% 30.19 in 10.0 mi Calm Calm - N/A   Partly Cloudy
6:15 AM 39.2 °F 37.0 °F 35.6 °F 87% 30.19 in 10.0 mi WNW 3.5 mph - N/A   Clear
6:35 AM 39.2 °F 37.0 °F 35.6 °F 87% 30.19 in 10.0 mi NW 3.5 mph - N/A   Clear
6:55 AM 37.4 °F 33.8 °F 33.8 °F 87% 30.19 in 10.0 mi NNW 4.6 mph - N/A   Clear
7:15 AM 37.4 °F 33.8 °F 32.0 °F 81% 30.21 in 10.0 mi NNW 4.6 mph - N/A   Clear
7:35 AM 37.4 °F - 32.0 °F 81% 30.22 in 10.0 mi Calm Calm - N/A   Clear
7:55 AM 37.4 °F - 33.8 °F 87% 30.23 in 10.0 mi Calm Calm - N/A   Clear
8:15 AM 39.2 °F 35.9 °F 32.0 °F 75% 30.24 in 10.0 mi NW 4.6 mph - N/A   Clear
8:35 AM 41.0 °F 35.8 °F 30.2 °F 65% 30.25 in 10.0 mi NW 8.1 mph - N/A   Clear
8:55 AM 42.8 °F 37.5 °F 28.4 °F 57% 30.26 in 10.0 mi NNW 9.2 mph - N/A   Clear
9:15 AM 42.8 °F 37.0 °F 24.8 °F 49% 30.26 in 10.0 mi North 10.4 mph 17.3 mph N/A   Clear
9:35 AM 42.8 °F 36.2 °F 23.0 °F 46% 30.27 in 10.0 mi NW 12.7 mph 16.1 mph N/A   Clear
9:55 AM 44.6 °F 39.2 °F 23.0 °F 43% 30.27 in 10.0 mi North 10.4 mph - N/A   Clear
10:15 AM 44.6 °F 40.2 °F 21.2 °F 39% 30.27 in 10.0 mi NNW 8.1 mph - N/A   Clear
10:35 AM 46.4 °F 41.1 °F 19.4 °F 34% 30.27 in 10.0 mi NW 11.5 mph 18.4 mph N/A   Clear
10:55 AM 46.4 °F 41.9 °F 19.4 °F 34% 30.26 in 10.0 mi NW 9.2 mph - N/A   Clear
11:15 AM 46.4 °F 40.4 °F 19.4 °F 34% 30.24 in 10.0 mi NNW 13.8 mph 19.6 mph N/A   Clear
11:35 AM 46.4 °F 41.1 °F 19.4 °F 34% 30.23 in 10.0 mi NNW 11.5 mph 20.7 mph N/A   Clear
11:55 AM 48.2 °F - 17.6 °F 30% 30.22 in 10.0 mi NW 12.7 mph 17.3 mph N/A   Clear
12:15 PM 48.2 °F - 17.6 °F 30% 30.20 in 10.0 mi West 15.0 mph 21.9 mph N/A   Clear
12:35 PM 48.2 °F - 19.4 °F 32% 30.18 in 10.0 mi NW 12.7 mph 17.3 mph N/A   Clear
12:55 PM 48.2 °F - 19.4 °F 32% 30.17 in 10.0 mi NW 11.5 mph 18.4 mph N/A   Clear
1:15 PM 50.0 °F - 19.4 °F 30% 30.16 in 10.0 mi WNW 12.7 mph 20.7 mph N/A   Clear
1:35 PM 48.2 °F - 19.4 °F 32% 30.16 in 10.0 mi NNW 15.0 mph 25.3 mph N/A   Clear
1:55 PM 48.2 °F - 19.4 °F 32% 30.16 in 10.0 mi West 10.4 mph 21.9 mph N/A   Partly Cloudy
2:15 PM 50.0 °F - 21.2 °F 32% 30.16 in 10.0 mi WNW 10.4 mph - N/A   Partly Cloudy
2:35 PM 50.0 °F - 19.4 °F 30% 30.16 in 10.0 mi West 16.1 mph 21.9 mph N/A   Partly Cloudy
2:55 PM 50.0 °F - 21.2 °F 32% 30.16 in 10.0 mi West 16.1 mph 23.0 mph N/A   Clear
3:15 PM 48.2 °F - 19.4 °F 32% 30.16 in 10.0 mi WNW 17.3 mph 25.3 mph N/A   Clear
3:35 PM 48.2 °F - 19.4 °F 32% 30.17 in 10.0 mi West 12.7 mph 21.9 mph N/A   Clear
3:55 PM 48.2 °F - 19.4 °F 32% 30.17 in 10.0 mi WNW 12.7 mph 18.4 mph N/A   Clear
4:15 PM 48.2 °F - 17.6 °F 30% 30.17 in 10.0 mi WNW 12.7 mph 20.7 mph N/A   Clear
4:35 PM 46.4 °F 41.9 °F 19.4 °F 34% 30.18 in 10.0 mi WNW 9.2 mph - N/A   Clear
4:55 PM 46.4 °F 42.4 °F 19.4 °F 34% 30.18 in 10.0 mi NW 8.1 mph - N/A   Clear
5:15 PM 44.6 °F 41.4 °F 21.2 °F 39% 30.17 in 10.0 mi NW 5.8 mph - N/A   Clear
5:35 PM 42.8 °F 41.1 °F 21.2 °F 42% 30.18 in 10.0 mi NW 3.5 mph - N/A   Clear
5:55 PM 42.8 °F 40.1 °F 21.2 °F 42% 30.18 in 10.0 mi NW 4.6 mph - N/A   Clear
6:15 PM 41.0 °F 38.0 °F 23.0 °F 49% 30.19 in 10.0 mi NW 4.6 mph - N/A   Clear
6:35 PM 39.2 °F 35.9 °F 23.0 °F 52% 30.19 in 10.0 mi NW 4.6 mph - N/A   Clear
6:55 PM 39.2 °F - 21.2 °F 49% 30.21 in 10.0 mi Calm Calm - N/A   Clear
7:15 PM 39.2 °F - 21.2 °F 49% 30.21 in 10.0 mi Calm Calm - N/A   Clear
7:35 PM 37.4 °F - 21.2 °F 52% 30.21 in 10.0 mi Calm Calm - N/A   Clear
7:55 PM 37.4 °F - 23.0 °F 56% 30.22 in 10.0 mi Calm Calm - N/A   Clear
8:15 PM 37.4 °F - 21.2 °F 52% 30.22 in 10.0 mi Calm Calm - N/A   Clear
8:35 PM 33.8 °F - 26.6 °F 75% 30.22 in 10.0 mi Calm Calm - N/A   Clear
8:55 PM 32.0 °F - 26.6 °F 80% 30.23 in 10.0 mi Calm Calm - N/A   Clear
9:15 PM 32.0 °F - 26.6 °F 80% 30.23 in 10.0 mi Calm Calm - N/A   Clear
9:35 PM 32.0 °F - 26.6 °F 80% 30.23 in 10.0 mi Calm Calm - N/A   Clear
9:55 PM 32.0 °F - 24.8 °F 75% 30.22 in 10.0 mi Calm Calm - N/A   Clear
10:15 PM 30.2 °F - 24.8 °F 80% 30.22 in 10.0 mi Calm Calm - N/A   Clear
10:35 PM 30.2 °F - 24.8 °F 80% 30.22 in 10.0 mi Calm Calm - N/A   Clear
10:55 PM 30.2 °F - 26.6 °F 86% 30.22 in 10.0 mi Calm Calm - N/A   Clear
11:15 PM 30.2 °F - 26.6 °F 86% 30.21 in 10.0 mi Calm Calm - N/A   Clear
11:35 PM 30.2 °F - 26.6 °F 86% 30.21 in 10.0 mi Calm Calm - N/A   Clear
11:55 PM 28.4 °F - 26.6 °F 93% 30.20 in 10.0 mi Calm Calm - N/A   Clear